Showing default

ICEYE-X52, 64572

Orbit data source: Space-Track

ICEYE-X52, 64572 is a payload satellite owned by ICEYE (FI) in SSO that was launched on Mon, 23 Jun 2025 UTC via an FALCON 9 launch vehicle from the Air Force Western Test Range (AFWTR). Payload-class satellites include a variety of spacecraft equipped with specific instruments for various scientific and technological missions. These include communications satellites like Starlink; space stations such as the ISS; scientific satellites like the Hubble; Earth observation satellites from companies like Planet Labs, Umbra, and HawkEye 360; GPS; miniature CubeSats for education and research; and military/defense satellites.

Loading next visibility...
Identifier
64572, 2025-135AW
Orbit
SSO
Country
Flag of FIFI / FIN
Related business
Manufacturer
ICEYE
Mission
Operational Commercial Radar Imaging
Bus & Motor
ICEYE, Unknown motor
Mass
80 kg wet, 80 kg dry
Launch date (UTC)
2025-06-23 (1 year ago)
Launch vehicle
FALCON 9
Launch site
Air Force Western Test Range (AFWTR)
Object type
Payload
Rocket body
Debris
Shape & HBR
Box + 1 Pan, 2.4 m
Radar Cross Section
0.776 m², Medium (>0.1 m² and < 1m²)

Expand to show TLE details & history
Last TLE update: 10 hours ago

TLE from 10 hours ago
0 ICEYE-X52
1 64572U 25135AW  26171.55361501  .00001238  00000-0  12283-3 0  9996
2 64572  97.7749 285.7649 0001365   8.0321 352.0920 14.93570023 54384
Epoch: 2026-06-20T13:17Z
TLE epoch observation values (Epoch: 2026-06-20T13:17:12.336Z)
Latitude
-0.00008°
Longitude
177.69693°
Altitude
588.917 km
Speed
7.566 km/s
True Right ascension
19h 03m 03s
True Declination
0° 00' 00"
Sunlit
Object was in full shadow at epoch
Visualization orbit readout
Latitude
Unknown
Longitude
Unknown
Altitude
Unknown
Speed
Unknown
Apparent Right ascension
Unknown
Apparent Declination
Unknown
Sunlit
N/A
Visualization observer readout
Local Sidereal Time
10:20:26
Azimuth
Unknown
Elevation
Unknown
Doppler factor
Unknown
Orbital elements
Apogee altitude
584.782 km
Perigee altitude
582.882 km
Semi-major axis
6,961.969 km
Eccentricity
0.00014
Inclination
97.7749°
RAAN
285.7649°
Arg. of periapsis
8.0321°
True anomaly
352.08985°
Mean anomaly
352.092°
Eccentric anomaly
352.09092°
Mean motion
3.73633 °/min
Orbital period
96.35 mins
BSTAR
0.00012283
Loading maneuver chart data...
Computing Atmospheric mass density...
Loading historical data...
Loading historical data...
Loading historical data...
Loading historical data...
Loading historical data...
Loading historical data...
Loading historical data...

Documentation

Showing up to 5 results
|